Tracking 30157 objects as of 12-Feb-2025
HD Live streaming from Space Station
objects crossing your sky now

STARLINK-32519

Track STARLINK-32519 now!
10-day predictions
STARLINK-32519 is classified as:


NORAD ID: 62317
Int'l Code: 2024-239S
Perigee: 453.6 km
Apogee: 455.2 km
Inclination: 53.2 °
Period: 93.5 minutes
Semi major axis: 6825 km
RCS: Unknown
Launch date: December 13, 2024
Source: United States (US)
Launch site: AIR FORCE WESTERN TEST RANGE (AFWTR)
Your satellite tracking list
Your tracking list is empty




NASA's NSSDC Master Catalog

Two Line Element Set (TLE):
1 62317U 24239S   25042.89511612  .00001105  00000-0  37615-4 0  9998
2 62317  53.1575 212.5162 0001219  72.6148 287.4990 15.39615866  9500
Source of the keplerian elements: AFSPC